Date String (YYYY-MM-DD hh:mm:ss) UTC,Instrument flags,absolute air pressure of the measurement (hPa),sample flow rate (lpm),inlet stack bypass flow (lpm),air temperature of the measurement (°C),ambient temperature measured by the external sensor (°C),aerosol sample conditioner tube jacket temperature (°C),OPC LED temperature (°C),internal box temperature (°C),relative humidity of the measurement (%),span deviation,mass concentration of particles derived from Lorenz-Mie calculation of OPC scattering (μg/m³),mass concentration of particles derived from Lorenz-Mie calculation of OPC scattering (μg/m³),mass concentration of particles derived from Lorenz-Mie calculation of OPC scattering (μg/m³)
DateTimeUTC,F1_M11,P_M11,Q1_M11,Q2_M11,T1_M11,T2_M11,T3_M11,T4_M11,T5_M11,U1_M11,ZSPAN_M11,X2_M11,X0_M11,X1_M11
2024-04-13 03:00:00,SystemResetWarning,0827.9,5.01,000.00,025.6,025.1,000.0,033.6,027.5,011.0,0000.0,0003.61,0012.03,0001.96
2024-04-13 03:01:00,SystemResetWarning,0828.0,4.99,000.00,025.6,025.1,000.0,033.6,027.5,011.0,0000.0,0003.62,0012.98,0001.95
2024-04-13 03:02:00,SystemResetWarning,0828.0,4.99,000.00,025.6,025.1,000.0,033.7,027.5,011.0,0000.0,0003.63,0012.33,0001.95
2024-04-13 03:03:00,SystemResetWarning,0827.9,5.00,000.00,025.5,023.5,000.0,033.7,026.6,011.0,0000.0,0003.63,0012.27,0001.94
2024-04-13 03:04:00,SystemResetWarning,0827.8,5.00,000.00,025.0,022.1,000.0,033.7,025.6,011.1,0000.0,0003.58,0012.20,0001.93
2024-04-13 03:05:00,SystemResetWarning,0827.9,5.01,000.00,024.8,022.1,000.0,033.7,025.5,011.4,0000.0,0003.56,0012.09,0001.93
2024-04-13 03:06:00,SystemResetWarning,0827.9,5.00,000.00,024.7,022.4,000.0,033.5,025.8,011.5,0000.0,0003.52,0012.02,0001.91
2024-04-13 03:07:00,SystemResetWarning,0828.0,5.00,000.00,024.7,022.8,000.0,033.4,026.1,011.5,0000.0,0003.52,0011.59,0001.91
2024-04-13 03:08:00,SystemResetWarning,0828.0,5.00,000.00,024.8,023.1,000.0,033.4,026.3,011.5,0000.0,0003.55,0011.33,0001.92
2024-04-13 03:09:00,SystemResetWarning,0828.0,4.99,000.00,024.8,023.4,000.0,033.3,026.5,011.5,0000.0,0003.56,0011.83,0001.93
2024-04-13 03:10:00,SystemResetWarning,0828.1,5.00,000.00,024.9,023.6,000.0,033.3,026.6,011.6,0000.0,0003.62,0011.79,0001.94
2024-04-13 03:11:00,SystemResetWarning,0828.1,5.00,000.00,024.9,023.8,000.0,033.3,026.7,011.5,0000.0,0003.63,0011.53,0001.95
2024-04-13 03:12:00,SystemResetWarning,0828.1,5.00,000.00,025.0,024.0,000.0,033.3,026.8,011.5,0000.0,0003.64,0010.79,0001.95
2024-04-13 03:13:00,SystemResetWarning,0828.1,5.00,000.00,025.0,024.2,000.0,033.3,026.9,011.4,0000.0,0003.60,0010.38,0001.95
2024-04-13 03:14:00,SystemResetWarning,0828.1,4.99,000.00,025.1,024.3,000.0,033.3,026.9,011.5,0000.0,0003.60,0010.77,0001.96
2024-04-13 03:15:00,SystemResetWarning,0828.1,4.99,000.00,025.1,024.4,000.0,033.3,027.0,011.4,0000.0,0003.57,0010.79,0001.96
2024-04-13 03:16:00,SystemResetWarning,0828.1,4.99,000.00,025.2,024.5,000.0,033.4,027.1,011.3,0000.0,0003.53,0010.76,0001.97
2024-04-13 03:17:00,SystemResetWarning,0828.1,5.01,000.00,025.2,024.6,000.0,033.4,027.1,011.3,0000.0,0003.56,0010.58,0001.98
2024-04-13 03:18:00,SystemResetWarning,0828.0,5.01,000.00,025.3,024.7,000.0,033.4,027.2,011.4,0000.0,0003.56,0010.45,0001.98
2024-04-13 03:19:00,SystemResetWarning,0828.1,5.00,000.00,025.3,024.7,000.0,033.4,027.2,011.7,0000.0,0003.55,0010.48,0002.01
2024-04-13 03:20:00,SystemResetWarning,0828.1,4.99,000.00,025.4,024.8,000.0,033.5,027.3,011.8,0000.0,0003.53,0010.19,0002.00
2024-04-13 03:21:00,SystemResetWarning,0828.0,4.99,000.00,025.4,024.9,000.0,033.5,027.3,011.4,0000.0,0003.48,0009.59,0001.99
2024-04-13 03:22:00,SystemResetWarning,0828.1,5.00,000.00,025.5,024.9,000.0,033.5,027.4,011.0,0000.0,0003.44,0009.32,0001.98
2024-04-13 03:23:00,SystemResetWarning,0828.1,5.01,000.00,025.5,025.0,000.0,033.6,027.4,010.8,0000.0,0003.46,0009.89,0001.99
2024-04-13 03:24:00,SystemResetWarning,0828.0,5.01,000.00,025.5,025.0,000.0,033.6,027.4,011.0,0000.0,0003.52,0010.09,0001.99
2024-04-13 03:25:00,SystemResetWarning,0828.0,5.00,000.00,025.6,025.0,000.0,033.6,027.5,010.9,0000.0,0003.50,0009.67,0001.97
2024-04-13 03:26:00,SystemResetWarning,0828.0,5.00,000.00,025.6,025.1,000.0,033.7,027.5,010.8,0000.0,0003.59,0009.82,0001.98
2024-04-13 03:27:00,SystemResetWarning,0828.1,5.00,000.00,025.6,025.1,000.0,033.7,027.5,010.8,0000.0,0003.58,0010.78,0001.98
2024-04-13 03:28:00,SystemResetWarning,0828.1,5.00,000.00,025.7,025.1,000.0,033.7,027.5,010.8,0000.0,0003.53,0010.51,0001.96
2024-04-13 03:29:00,SystemResetWarning,0828.1,4.99,000.00,025.7,025.2,000.0,033.8,027.5,010.5,0000.0,0003.51,0010.50,0001.95
2024-04-13 03:30:00,SystemResetWarning,0828.1,5.00,000.00,025.7,025.2,000.0,033.8,027.6,011.0,0000.0,0003.52,0010.53,0001.91
2024-04-13 03:31:00,SystemResetWarning,0828.1,5.00,000.00,025.8,025.2,000.0,033.8,027.6,010.8,0000.0,0003.56,0010.37,0001.91
2024-04-13 03:32:00,SystemResetWarning,0828.1,5.00,000.00,025.8,025.1,000.0,033.9,027.5,010.9,0000.0,0003.61,0010.35,0001.92
2024-04-13 03:33:00,SystemResetWarning,0828.0,5.00,000.00,025.6,023.3,000.0,033.9,026.5,010.9,0000.0,0003.60,0010.78,0001.92
2024-04-13 03:34:00,SystemResetWarning,0827.9,5.02,000.00,025.1,022.0,000.0,033.9,025.6,011.2,0000.0,0003.56,0010.52,0001.91
2024-04-13 03:35:00,SystemResetWarning,0827.9,5.00,000.00,024.9,022.1,000.0,033.8,025.6,011.5,0000.0,0003.55,0010.74,0001.90
2024-04-13 03:36:00,SystemResetWarning,0827.9,5.00,000.00,024.8,022.5,000.0,033.7,026.0,011.5,0000.0,0003.59,0010.84,0001.91
2024-04-13 03:37:00,SystemResetWarning,0828.0,4.99,000.00,024.9,022.8,000.0,033.6,026.2,011.5,0000.0,0003.52,0010.59,0001.89
2024-04-13 03:38:00,SystemResetWarning,0828.0,5.00,000.00,024.9,023.1,000.0,033.5,026.4,011.5,0000.0,0003.52,0009.46,0001.89
2024-04-13 03:39:00,SystemResetWarning,0828.0,5.00,000.00,024.9,023.4,000.0,033.5,026.5,011.5,0000.0,0003.55,0009.44,0001.90
2024-04-13 03:40:00,SystemResetWarning,0828.0,5.01,000.00,024.9,023.6,000.0,033.4,026.6,011.5,0000.0,0003.58,0009.44,0001.91
2024-04-13 03:41:00,SystemResetWarning,0827.9,5.00,000.00,025.0,023.8,000.0,033.4,026.7,011.4,0000.0,0003.56,0009.75,0001.90
2024-04-13 03:42:00,SystemResetWarning,0827.9,5.00,000.00,025.0,024.0,000.0,033.4,026.8,011.4,0000.0,0003.53,0010.22,0001.88
2024-04-13 03:43:00,SystemResetWarning,0827.9,5.00,000.00,025.1,024.1,000.0,033.4,026.8,011.4,0000.0,0003.46,0010.64,0001.87
2024-04-13 03:44:00,SystemResetWarning,0827.9,5.00,000.00,025.1,024.2,000.0,033.4,026.9,011.3,0000.0,0003.50,0010.30,0001.88
2024-04-13 03:45:00,SystemResetWarning,0827.8,5.00,000.00,025.1,024.4,000.0,033.4,027.0,011.3,0000.0,0003.53,0009.80,0001.89
2024-04-13 03:46:00,SystemResetWarning,0827.8,5.00,000.00,025.2,024.5,000.0,033.4,027.0,011.2,0000.0,0003.51,0009.33,0001.90
2024-04-13 03:47:00,SystemResetWarning,0827.8,5.00,000.00,025.2,024.5,000.0,033.5,027.1,011.2,0000.0,0003.50,0009.25,0001.89
2024-04-13 03:48:00,SystemResetWarning,0827.8,5.00,000.00,025.3,024.6,000.0,033.5,027.1,011.2,0000.0,0003.49,0009.15,0001.87
2024-04-13 03:49:00,SystemResetWarning,0827.8,5.00,000.00,025.3,024.7,000.0,033.5,027.2,011.1,0000.0,0003.49,0009.13,0001.87
2024-04-13 03:50:00,SystemResetWarning,0827.8,5.00,000.00,025.4,024.7,000.0,033.5,027.2,011.2,0000.0,0003.49,0009.09,0001.86
2024-04-13 03:51:00,SystemResetWarning,0827.8,5.00,000.00,025.4,024.8,000.0,033.5,027.3,011.0,0000.0,0003.45,0009.06,0001.85
2024-04-13 03:52:00,SystemResetWarning,0827.8,5.00,000.00,025.4,024.8,000.0,033.6,027.3,011.0,0000.0,0003.46,0008.64,0001.87
2024-04-13 03:53:00,SystemResetWarning,0827.9,5.00,000.00,025.5,024.9,000.0,033.6,027.3,011.0,0000.0,0003.45,0008.12,0001.89
2024-04-13 03:54:00,SystemResetWarning,0827.9,5.00,000.00,025.5,024.9,000.0,033.6,027.3,011.0,0000.0,0003.45,0007.48,0001.89
2024-04-13 03:55:00,SystemResetWarning,0827.9,5.00,000.00,025.5,024.9,000.0,033.7,027.4,011.0,0000.0,0003.44,0007.70,0001.89
2024-04-13 03:56:00,SystemResetWarning,0827.9,4.99,000.00,025.6,025.0,000.0,033.7,027.4,011.0,0000.0,0003.45,0008.09,0001.89
2024-04-13 03:57:00,SystemResetWarning,0827.9,4.99,000.00,025.6,025.0,000.0,033.7,027.4,010.8,0000.0,0003.47,0008.26,0001.88
2024-04-13 03:58:00,SystemResetWarning,0827.9,5.00,000.00,025.6,025.0,000.0,033.7,027.5,010.9,0000.0,0003.50,0008.41,0001.88
2024-04-13 03:59:00,SystemResetWarning,0827.8,5.00,000.00,025.6,025.0,000.0,033.8,027.5,010.8,0000.0,0003.50,0008.38,0001.90
